OneWeb SL0152

operational
NORAD ID: 48043 Int'l Des: 2021-025 Owner: ONEWEBN Country: UK Constellation: oneweb
LEOCIRCULARPOLARONEWEB_TYPE

Über OneWeb SL0152

Beschreibung wird geladen...

Live-Position

3D-Globus wird geladen...

Nächste Überflüge

Höhenverlauf

Altitude vs Time

uPlot chart will show altitude changes over time

Zweizeiliger Elementsatz

1 48043U 21025B 25258.56902780 -.00000066 00000-0 -21474-3 0 9993
2 48043 87.9035 14.7818 0001671 96.9517 263.1802 13.13470578217500
Epoch: 15. Sept. 2025 • Age: 17 hours

Aktueller Status

Höhe 1211.7 km
Geschwindigkeit 7.25 km/s
Subsatellitenpunkt 13.27°N, 72.98°W
Startdatum 25. März 2021
Alter 4.4 years
Typ internet

Technische Details

Klassifizierung Payload
Masse 148.00 kg
Trockenmasse 140.00 kg
Gesamtmasse 148.00 kg
Länge 1.30 m
Durchmesser 1.00 m
Spannweite 5.00 m
Form Trapezoid+2 pan
Hersteller ONEWUS
Bus-Typ ARROW
Phasenstatus In Orbit
Besitzer/Staat ONEWEBN/UK

Große Konstellationen

Loading constellations...